Погода в Тханьхоа

Вьетнам     19°48′30″N   105°46′32″E
В апреле 2022 года жителям России запретили посещать сайт meteo.paraplan.net по решению Генеральной прокуратуры. Аудитория сайта уменьшилась в 10 раз. Владельцы сайта не видят смысла в поддержке погодного сервера в таких условиях. Сайт будет закрыт в октябре.
темп.,
°C
ветер,
м/с
пор.,
м/с
влажн.,
%
обл.,
%
осадки,
мм/ч
давл.,
гПа
погр.,
м
4 октября, вт
вт401:00+23сз229767 1.8 101361
04:00+23сз239711 0.1 101379
07:00+24сз23945 0.1 1014147
10:00+28ссв237923 1.7 1015776
13:00+30св237312 4.1 1012982
16:00+28в34825 1.3 1011310
19:00+25св129212 2.4 101254
22:00+24сз229596 2.8 101438
5 октября, ср
ср501:00+24сз2295100 4.3 101348
04:00+24сз2496100 0.3 1012108
07:00+24ссз2394100 0.3 1014137
10:00+29ссв237317 0.1 1015874
13:00+30всв3468100 1.7 10121157
16:00+28всв358414 2.6 1010572
19:00+25всв23945 5.9 101286
22:00+24ссз119552 5.9 101448
6 октября, чт
чт601:00+24ссз119528 6.8 101228
04:00+24ссз1295100 0.1 101238
07:00+25ссз239438 0.4 1014153
10:00+28св238032 1.8 1014771
13:00+28всв348030 5.9 1012798
16:00+28всв358619 4.5 1011646
19:00+25всв23925 6.5 101289
22:00+24с22949 2.2 101578
7 октября, пт
пт701:00+23сз239759 2.5 101378
04:00+23сз229723 1.1 101347
07:00+24ссз2597100 2.6 1014178
10:00+24с3794100 6.1 1015317
13:00+24ссз3694100 8.0 1012300
16:00+27с358232 0.1 1010758
19:00+24сз239516 1.8 101279
22:00+23зсз229632 2.9 101456
8 октября, сб
сб801:00+23сз239789 4.3 101384
04:00+23сз239890 0.3 101284
07:00+23сз249699 0.4 1014194
10:00+24ссз1394100 0.1 1015253
13:00+27всв2379100 0.3 1012675
16:00+27всв347719 0.4 1011695
19:00+25с229295 0.4 101384
22:00+24ссз1296100 2.9 101456